[[{"header":{"parameterUnit":"m.s-1","parameterCategory":1,"la1":30.2991,"la2":30.254,"lo1":-89.0895,"lo2":-89.0444,"dy":0.0017,"dx":0.0017,"nx":28,"ny":28,"refTime":"2025-07-03T09:00:00:Z","depth":0,"parameterNumber":2,"parameterNumberName":"U-component_of_WINDS"},"data":[0,0,0,0,0,0,0,0,0,0,0,0,0,0,0,0,0,0,0,0,0,0,0,0,0,0,0,0,0,0,0,0,0,0,0,0,0,0,0,0,0,0,0,0,0,0,0,0,0,0,0,0,0,0,0,0,0,0,-0.0233,-0.0233,0,-0.0239,-0.0239,-0.024,-0.0224,-0.0223,-0.0223,-0.0222,-0.023,-0.0231,-0.0231,0,0,0,0,0,0,0,0,0,0,0,0,0,-0.0207,-0.0207,-0.0233,-0.0233,-0.0233,-0.0239,-0.0239,-0.024,-0.0224,-0.0223,-0.0222,-0.0222,-0.023,-0.0231,-0.0232,0,0,0,0,0,0,0,0,0,0,0,0,0,-0.0216,-0.0207,-0.0233,-0.0226,-0.0225,-0.0239,-0.0239,-0.024,-0.0224,-0.0223,-0.0222,-0.0222,-0.023,-0.0231,-0.0232,-0.0253,0,0,-0.0235,-0.0235,0,0,0,0,0,0,0,0,-0.0216,-0.0217,-0.0227,-0.0226,-0.0226,-0.023,-0.0233,-0.0244,-0.0224,-0.0224,-0.0222,-0.0221,-0.0231,-0.0232,-0.0235,-0.0254,-0.0254,-0.0235,-0.0236,-0.0236,-0.0236,0,0,0,0,0,0,0,-0.0215,-0.0217,-0.0235,-0.0227,-0.0226,-0.0222,-0.0223,-0.0235,-0.0232,-0.0224,-0.0223,-0.0224,-0.023,-0.0234,-0.0235,-0.0254,-0.0235,-0.0236,-0.0236,-0.0237,-0.0291,-0.0291,0,0,0,0,0,0,-0.0215,-0.0216,-0.0235,-0.0236,-0.0219,-0.0223,-0.0224,-0.0229,-0.0232,-0.0231,-0.0225,-0.0223,-0.0232,-0.0233,-0.0235,-0.026,-0.0236,-0.0237,-0.0238,-0.029,-0.0291,-0.0292,0,0,0,0,0,0,-0.0215,-0.0217,-0.0235,-0.0226,-0.0228,-0.0225,-0.0231,-0.023,-0.0233,-0.0232,-0.0231,-0.0229,-0.0232,-0.0233,-0.0249,-0.0261,-0.0237,-0.0238,-0.0289,-0.029,-0.0291,-0.0312,0,0,0,0,0,0,-0.0214,-0.0217,-0.0225,-0.0226,-0.0228,-0.0249,-0.0231,-0.0231,-0.0235,-0.0233,-0.0236,-0.0235,-0.0231,-0.0247,-0.025,-0.0262,-0.0239,-0.0288,-0.029,-0.0291,-0.031,-0.0314,-0.0317,0,0,0,0,0,-0.0213,-0.0231,-0.0226,-0.0228,-0.0238,-0.0249,-0.0251,-0.0245,-0.0236,-0.0244,-0.0243,-0.0235,-0.0258,-0.0249,-0.0252,-0.0264,-0.0287,-0.0289,-0.0291,-0.0309,-0.0313,-0.0316,0,0,0,0,0,0,-0.0233,-0.0231,-0.0225,-0.0244,-0.0247,-0.0247,-0.0257,-0.025,-0.0256,-0.0254,-0.0248,-0.0248,-0.0265,-0.0266,-0.0255,-0.0285,-0.0271,-0.0274,-0.0284,-0.0288,-0.0291,-0.0291,-0.024,0,0,0,0,0,-0.0239,-0.0248,-0.0246,-0.0263,-0.0264,-0.026,-0.0265,-0.026,-0.0263,-0.0265,-0.0265,-0.0268,-0.0276,-0.0282,-0.0289,-0.0309,-0.031,-0.0319,-0.0322,-0.0325,-0.0328,-0.0338,-0.0343,-0.0298,-0.0298,-0.0298,0,0,-0.0253,-0.0253,-0.0259,-0.0267,-0.0268,-0.0278,-0.0262,-0.0273,-0.028,-0.0267,-0.0281,-0.0281,-0.0284,-0.0302,-0.031,-0.0303,-0.034,-0.0327,-0.033,-0.0331,-0.0341,-0.0345,-0.0349,-0.0299,-0.0299,-0.0299,0,0,-0.0282,-0.0283,-0.0297,-0.0299,-0.0301,-0.0298,-0.0301,-0.0302,-0.0302,-0.0316,-0.0306,-0.0314,-0.0328,-0.0331,-0.0334,-0.0363,-0.0356,-0.0365,-0.0383,-0.0393,-0.0397,-0.04,-0.0411,-0.0414,-0.0367,-0.0367,-0.0367,0,-0.0299,-0.0313,-0.0305,-0.0317,-0.032,-0.0308,-0.0322,-0.0324,-0.0329,-0.0332,-0.0324,-0.034,-0.0342,-0.036,-0.0367,-0.037,-0.0373,-0.0366,-0.0397,-0.04,-0.0402,-0.0413,-0.0417,-0.0369,-0.0368,-0.0368,-0.0368,0,-0.0334,-0.0343,-0.0354,-0.0358,-0.0363,-0.0376,-0.037,-0.0375,-0.037,-0.0368,-0.0382,-0.0383,-0.039,-0.0393,-0.0389,-0.0411,-0.0407,-0.0398,-0.0384,-0.0408,-0.0418,-0.0422,-0.037,-0.037,-0.037,-0.0369,0,0,-0.0378,-0.0377,-0.0381,-0.0383,-0.0383,-0.0391,-0.0402,-0.0409,-0.0414,-0.0417,-0.0427,-0.0438,-0.0429,-0.0433,-0.0428,-0.0437,-0.046,-0.0427,-0.0427,-0.0434,-0.0485,-0.0493,-0.0497,-0.0455,-0.0455,-0.0456,-0.0485,0,-0.0408,-0.0428,-0.0421,-0.0441,-0.045,-0.0437,-0.0447,-0.0449,-0.0447,-0.0454,-0.0451,-0.0459,-0.0447,-0.0449,-0.0457,-0.0456,-0.0471,-0.0453,-0.0465,-0.0465,-0.0466,-0.0502,-0.0511,-0.0538,-0.0489,-0.0489,-0.049,0,-0.0446,-0.045,-0.0471,-0.047,-0.0473,-0.0483,-0.0487,-0.0494,-0.0495,-0.0493,-0.0496,-0.0489,-0.05,-0.0485,-0.0501,-0.0489,-0.0493,-0.0493,-0.0494,-0.0496,-0.048,-0.0506,-0.0547,-0.0551,-0.0495,-0.0495,-0.0495,0,-0.0477,-0.0488,-0.0502,-0.0503,-0.0502,-0.0509,-0.0509,-0.0509,-0.0513,-0.0517,-0.0519,-0.0525,-0.0528,-0.0532,-0.0527,-0.0516,-0.0543,-0.0528,-0.0542,-0.0542,-0.055,-0.055,-0.0592,-0.055,-0.055,-0.055,-0.055,0,-0.0512,-0.0526,-0.0516,-0.0524,-0.0539,-0.053,-0.0545,-0.0543,-0.0543,-0.0552,-0.0541,-0.0549,-0.054,-0.0547,-0.0542,-0.0556,-0.0557,-0.0556,-0.0555,-0.0558,-0.0558,-0.0562,-0.056,-0.0551,-0.0551,-0.0551,-0.055,0,-0.055,-0.0544,-0.0558,-0.0555,-0.0555,-0.0566,-0.0563,-0.0571,-0.0567,-0.0578,-0.058,-0.0574,-0.0582,-0.0576,-0.0584,-0.058,-0.0599,-0.0594,-0.0598,-0.0598,-0.0612,-0.0611,-0.066,-0.0666,-0.0619,-0.0619,-0.062,0,-0.0574,-0.0584,-0.0581,-0.0586,-0.0586,-0.0593,-0.0597,-0.0588,-0.0592,-0.0594,-0.0602,-0.0608,-0.0613,-0.0626,-0.0623,-0.0628,-0.0625,-0.0641,-0.0626,-0.0628,-0.0626,-0.0626,-0.0627,-0.0645,-0.0645,-0.0646,-0.0646,0,-0.0616,-0.0612,-0.0618,-0.0622,-0.0626,-0.0629,-0.0631,-0.0635,-0.0626,-0.0631,-0.0639,-0.0643,-0.065,-0.0657,-0.0661,-0.0661,-0.0652,-0.0651,-0.0654,-0.0658,-0.0661,-0.066,-0.0608,-0.065,-0.065,-0.0649,-0.0649,-0.0649,-0.0648,-0.0657,-0.0656,-0.0662,-0.0662,-0.0664,-0.0671,-0.0668,-0.0674,-0.0679,-0.0673,-0.0682,-0.0682,-0.0687,-0.0687,-0.0694,-0.0688,-0.0693,-0.0695,-0.0696,-0.0699,-0.0658,-0.0695,-0.0695,-0.0695,-0.0695,-0.0695,0,-0.0691,-0.0689,-0.0695,-0.0698,-0.0703,-0.0693,-0.0694,-0.0699,-0.0707,-0.0707,-0.0712,-0.072,-0.0726,-0.0723,-0.0728,-0.0735,-0.0731,-0.0736,-0.0737,-0.0737,-0.0704,-0.0701,-0.0739,-0.0739,-0.0739,-0.0739,-0.0739,-0.0739,-0.0714,-0.0727,-0.0723,-0.0736,-0.0734,-0.0743,-0.0744,-0.0746,-0.0746,-0.0756,-0.0761,-0.0758,-0.0757,-0.0762,-0.0767,-0.0765,-0.0768,-0.0776,-0.0773,-0.0743,-0.0739,-0.0735,-0.0732,-0.0776,-0.0776,-0.0805,-0.0806,-0.0806]},{"header":{"parameterUnit":"m.s-1","parameterCategory":1,"la1":30.2991,"la2":30.254,"lo1":-89.0895,"lo2":-89.0444,"dy":0.0017,"dx":0.0017,"nx":28,"ny":28,"refTime":"2025-07-03T09:00:00:Z","depth":0,"parameterNumber":3,"parameterNumberName":"V-component_of_WINDS"},"data":[0,0,0,0,0,0,0,0,0,0,0,0,0,0,0,0,0,0,0,0,0,0,0,0,0,0,0,0,0,0,0,0,0,0,0,0,0,0,0,0,0,0,0,0,0,0,0,0,0,0,0,0,0,0,0,0,0,0,-2.7608,-2.7609,0,-2.7675,-2.7676,-2.7677,-2.7644,-2.7642,-2.764,-2.7639,-2.7703,-2.7707,-2.771,0,0,0,0,0,0,0,0,0,0,0,0,0,-2.7449,-2.7452,-2.7608,-2.7609,-2.761,-2.7675,-2.7676,-2.7677,-2.7644,-2.7642,-2.764,-2.7638,-2.7702,-2.7706,-2.771,0,0,0,0,0,0,0,0,0,0,0,0,0,-2.7518,-2.7454,-2.7608,-2.7601,-2.7602,-2.7675,-2.7676,-2.7677,-2.7644,-2.7642,-2.7639,-2.7637,-2.7701,-2.7706,-2.7711,-2.7794,0,0,-2.7726,-2.7728,0,0,0,0,0,0,0,0,-2.7514,-2.7523,-2.7602,-2.7602,-2.7602,-2.7649,-2.7644,-2.7716,-2.7645,-2.7628,-2.7639,-2.7635,-2.7687,-2.7693,-2.7711,-2.7797,-2.78,-2.7727,-2.773,-2.7732,-2.7733,0,0,0,0,0,0,0,-2.7509,-2.752,-2.7635,-2.7603,-2.7603,-2.7594,-2.7601,-2.7657,-2.7671,-2.7629,-2.7627,-2.7636,-2.7687,-2.7706,-2.7712,-2.7801,-2.7727,-2.7731,-2.7734,-2.7736,-2.7959,-2.7962,0,0,0,0,0,0,-2.7505,-2.7517,-2.7633,-2.7637,-2.7551,-2.7599,-2.7607,-2.7636,-2.767,-2.7673,-2.7638,-2.7634,-2.7699,-2.7707,-2.7715,-2.7815,-2.7732,-2.7737,-2.7739,-2.7956,-2.796,-2.7963,0,0,0,0,0,0,-2.7502,-2.7516,-2.763,-2.7576,-2.759,-2.7605,-2.7638,-2.7639,-2.7659,-2.7677,-2.7679,-2.7656,-2.7697,-2.7708,-2.7775,-2.7817,-2.7739,-2.7743,-2.7953,-2.7957,-2.7961,-2.8016,0,0,0,0,0,0,-2.7497,-2.7515,-2.7547,-2.7577,-2.7593,-2.769,-2.7641,-2.7642,-2.7668,-2.7663,-2.7694,-2.7697,-2.7696,-2.7768,-2.778,-2.7822,-2.7747,-2.7949,-2.7955,-2.796,-2.801,-2.8022,-2.8031,0,0,0,0,0,-2.7492,-2.7558,-2.7549,-2.7563,-2.7634,-2.7692,-2.7701,-2.77,-2.7671,-2.7704,-2.7716,-2.7696,-2.781,-2.7775,-2.7788,-2.7833,-2.7946,-2.7953,-2.796,-2.8006,-2.8019,-2.8031,0,0,0,0,0,0,-2.753,-2.7562,-2.7552,-2.763,-2.7659,-2.7687,-2.7727,-2.7715,-2.7751,-2.7745,-2.7741,-2.7749,-2.7819,-2.7832,-2.7792,-2.7916,-2.7874,-2.7883,-2.7904,-2.7917,-2.7928,-2.7923,-2.7751,0,0,0,0,0,-2.7549,-2.7595,-2.7619,-2.7686,-2.7701,-2.7712,-2.7737,-2.7735,-2.7764,-2.7775,-2.7792,-2.7821,-2.7863,-2.7891,-2.7931,-2.8012,-2.8019,-2.805,-2.806,-2.8068,-2.8077,-2.8122,-2.8136,-2.7985,-2.7984,-2.7984,0,0,-2.7585,-2.7608,-2.7637,-2.7695,-2.7717,-2.7764,-2.7722,-2.7774,-2.7809,-2.7783,-2.7848,-2.7862,-2.7893,-2.7968,-2.8002,-2.7982,-2.812,-2.8077,-2.8083,-2.8087,-2.813,-2.8145,-2.8157,-2.7989,-2.7988,-2.7987,0,0,-2.7677,-2.7699,-2.7758,-2.7782,-2.7817,-2.7823,-2.7838,-2.7868,-2.7877,-2.7942,-2.7924,-2.7965,-2.8038,-2.8062,-2.8084,-2.8187,-2.817,-2.82,-2.8254,-2.8298,-2.831,-2.8321,-2.8358,-2.8372,-2.8208,-2.8208,-2.8208,0,-2.7718,-2.779,-2.7789,-2.7843,-2.7869,-2.785,-2.791,-2.7932,-2.7977,-2.7995,-2.7972,-2.8065,-2.8084,-2.8166,-2.8191,-2.8209,-2.8225,-2.8196,-2.8309,-2.8319,-2.8329,-2.8365,-2.8379,-2.8212,-2.8211,-2.8211,-2.821,0,-2.784,-2.789,-2.7933,-2.798,-2.801,-2.8066,-2.8074,-2.8105,-2.81,-2.8109,-2.8177,-2.82,-2.8246,-2.8264,-2.8259,-2.8346,-2.8332,-2.8309,-2.8267,-2.8347,-2.8381,-2.8394,-2.8216,-2.8215,-2.8214,-2.8213,0,0,-2.7956,-2.8004,-2.802,-2.8041,-2.8079,-2.8117,-2.8173,-2.8219,-2.8246,-2.8278,-2.8325,-2.8388,-2.8368,-2.8392,-2.8389,-2.8428,-2.851,-2.84,-2.8401,-2.842,-2.8607,-2.8625,-2.8641,-2.8499,-2.8502,-2.8504,-2.8605,0,-2.8051,-2.815,-2.8152,-2.8242,-2.8289,-2.8272,-2.8321,-2.8349,-2.836,-2.8401,-2.8412,-2.8457,-2.8426,-2.8441,-2.8479,-2.8492,-2.8547,-2.8485,-2.8542,-2.8544,-2.8535,-2.8658,-2.8676,-2.8771,-2.8618,-2.862,-2.8622,0,-2.8175,-2.8213,-2.8309,-2.8342,-2.8362,-2.8405,-2.8448,-2.8487,-2.8519,-2.8524,-2.8553,-2.8545,-2.8602,-2.8559,-2.8637,-2.8594,-2.8618,-2.8628,-2.8632,-2.8637,-2.8588,-2.8667,-2.88,-2.8815,-2.8642,-2.8641,-2.8639,0,-2.8251,-2.8327,-2.8394,-2.8413,-2.8453,-2.8484,-2.8502,-2.8532,-2.856,-2.8597,-2.8615,-2.8658,-2.8682,-2.8715,-2.8719,-2.8686,-2.8798,-2.8754,-2.8803,-2.8803,-2.8827,-2.8825,-2.8966,-2.8842,-2.8842,-2.8842,-2.8841,0,-2.8357,-2.8416,-2.843,-2.8471,-2.8537,-2.8539,-2.8604,-2.8619,-2.8646,-2.869,-2.8678,-2.8719,-2.8722,-2.8764,-2.8767,-2.8832,-2.8842,-2.8848,-2.8848,-2.8849,-2.8848,-2.8864,-2.8858,-2.8845,-2.8844,-2.8844,-2.8843,0,-2.8453,-2.8464,-2.8537,-2.857,-2.8579,-2.8627,-2.8654,-2.8694,-2.8704,-2.876,-2.8773,-2.8789,-2.8838,-2.8846,-2.8903,-2.8905,-2.8983,-2.8976,-2.8973,-2.8972,-2.9021,-2.9017,-2.9177,-2.9199,-2.906,-2.9062,-2.9063,0,-2.852,-2.8565,-2.8604,-2.8633,-2.8653,-2.87,-2.873,-2.8734,-2.8764,-2.8806,-2.884,-2.8889,-2.8928,-2.9008,-2.9024,-2.9068,-2.9062,-2.9116,-2.9068,-2.9069,-2.9064,-2.9061,-2.9066,-2.9124,-2.9126,-2.9127,-2.9128,0,-2.8637,-2.8641,-2.8684,-2.8731,-2.8766,-2.8802,-2.8836,-2.8861,-2.8869,-2.8904,-2.8956,-2.8986,-2.9046,-2.9095,-2.9139,-2.9156,-2.9144,-2.9143,-2.9157,-2.9159,-2.9155,-2.9158,-2.8998,-2.9139,-2.9138,-2.9137,-2.9137,-2.9136,-2.8721,-2.8761,-2.8796,-2.8845,-2.8871,-2.8904,-2.8943,-2.896,-2.9003,-2.9053,-2.9053,-2.9109,-2.9141,-2.92,-2.9221,-2.9265,-2.9247,-2.9267,-2.9272,-2.9277,-2.9282,-2.9148,-2.9272,-2.9272,-2.9272,-2.9272,-2.9271,0,-2.8838,-2.886,-2.8905,-2.8955,-2.8994,-2.898,-2.9018,-2.9051,-2.9101,-2.9133,-2.9173,-2.9232,-2.928,-2.9301,-2.9347,-2.9379,-2.9374,-2.9391,-2.9389,-2.9393,-2.9295,-2.9278,-2.9394,-2.9394,-2.9394,-2.9394,-2.9394,-2.9394,-2.8904,-2.8972,-2.8981,-2.9062,-2.9083,-2.914,-2.9163,-2.9193,-2.9218,-2.9286,-2.9327,-2.934,-2.9368,-2.9417,-2.946,-2.9465,-2.9483,-2.9502,-2.9505,-2.9412,-2.94,-2.9388,-2.9373,-2.9506,-2.9506,-2.9599,-2.96,-2.9601]}]]